Location: Newark
(42.8481°N, 0.4872°E)
Time: 18:48:54
(UTC+00:00)

Vanguard 3 - Pass Details

Date: 04 November 2020
Orbit: 508 x 3262 km, 33.3° (Epoch: 24 November)

Event Time Altitude Azimuth Distance (km) Brightness Sun altitude
Rises 11:34:16 0° 277° (W) 7,232 11.9 31.5°
Reaches altitude 10° 11:43:18 10° 256° (WSW) 6,039 11.8 31.6°
Maximum altitude 11:50:24 13° 233° (SW) 5,421 12.0 31.5°
Drops below altitude 10° 11:56:47 10° 210° (SSW) 5,287 12.4 31.4°
Sets 12:03:36 0° 186° (S) 5,696 12.6 31.3°
